| time (UTC) | temp C | wind direction | speed KPH | gust KPH | rain 1hr cm | rain 24hr cm | rain mn cm | humidity % | barometer mb |
| 20260505223036 | 25 | 357 | 12.9 | 19.3 | 0.00 | 0.00 | 0.00 | 42 | 1013.4 |
| 20260505220032 | 25 | 345 | 11.3 | 19.3 | 0.00 | 0.00 | 0.00 | 43 | 1013.7 |
| 20260505214532 | 24 | 349 | 9.7 | 19.3 | 0.00 | 0.00 | 0.00 | 43 | 1013.8 |
| 20260505213035 | 24 | 349 | 9.7 | 17.7 | 0.00 | 0.00 | 0.00 | 44 | 1013.9 |
| 20260505210039 | 23 | 354 | 9.7 | 17.7 | 0.00 | 0.00 | 0.00 | 45 | 1014.2 |
| 20260505201650 | 21 | 8 | 9.7 | 19.3 | 0.00 | 0.00 | 0.00 | 49 | 1014.4 |
| 20260505200032 | 21 | 356 | 11.3 | 19.3 | 0.00 | 0.00 | 0.00 | 50 | 1014.6 |
| 20260505194612 | 21 | 3 | 9.7 | 17.7 | 0.00 | 0.00 | 0.00 | 51 | 1014.7 |
| 20260505193029 | 21 | 345 | 11.3 | 19.3 | 0.00 | 0.00 | 0.00 | 52 | 1014.7 |
| 20260505190105 | 20 | 342 | 9.7 | 20.9 | 0.00 | 0.00 | 0.00 | 54 | 1014.8 |
| 20260505184609 | 20 | 322 | 9.7 | 17.7 | 0.00 | 0.00 | 0.00 | 55 | 1014.9 |
| 20260505183030 | 20 | 344 | 9.7 | 17.7 | 0.00 | 0.00 | 0.00 | 57 | 1014.9 |
| 20260505180037 | 18 | 336 | 9.7 | 17.7 | 0.00 | 0.00 | 0.00 | 59 | 1014.9 |
| 20260505174530 | 18 | 354 | 8.0 | 16.1 | 0.00 | 0.00 | 0.00 | 59 | 1014.9 |
| 20260505173029 | 19 | 344 | 4.8 | 12.9 | 0.00 | 0.00 | 0.00 | 60 | 1014.8 |
| 20260505170029 | 18 | 23 | 3.2 | 8.0 | 0.00 | 0.00 | 0.00 | 64 | 1014.9 |
| 20260505164530 | 17 | 17 | 1.6 | 8.0 | 0.00 | 0.00 | 0.00 | 66 | 1014.9 |
| 20260505163042 | 17 | 356 | 3.2 | 8.0 | 0.00 | 0.00 | 0.00 | 68 | 1014.9 |
| 20260505161530 | 16 | 355 | 3.2 | 9.7 | 0.00 | 0.00 | 0.00 | 69 | 1014.9 |
| 20260505160107 | 16 | 45 | 3.2 | 8.0 | 0.00 | 0.00 | 0.00 | 73 | 1014.9 |
| 20260505153031 | 15 | 80 | 0.0 | 8.0 | 0.00 | 0.00 | 0.00 | 80 | 1014.6 |
| 20260505151532 | 13 | 131 | 0.0 | 4.8 | 0.00 | 0.00 | 0.00 | 84 | 1014.5 |
| 20260505124531 | 10 | 120 | 3.2 | 6.4 | 0.00 | 0.00 | 0.00 | 84 | 1013.0 |
| 20260505121529 | 10 | 164 | 3.2 | 6.4 | 0.00 | 0.00 | 0.00 | 83 | 1012.7 |
| 20260505120030 | 10 | 148 | 4.8 | 11.3 | 0.00 | 0.00 | 0.00 | 82 | 1012.7 |
| 20260505114533 | 11 | 119 | 1.6 | 6.4 | 0.00 | 0.00 | 0.00 | 81 | 1012.7 |
| 20260505113146 | 11 | 89 | 1.6 | 8.0 | 0.00 | 0.00 | 0.00 | 80 | 1012.6 |
| 20260505111531 | 12 | 113 | 0.0 | 4.8 | 0.00 | 0.00 | 0.00 | 78 | 1012.5 |
| 20260505101608 | 12 | 113 | 0.0 | 4.8 | 0.00 | 0.00 | 0.00 | 76 | 1012.1 |
| 20260505100108 | 13 | 360 | 0.0 | 3.2 | 0.00 | 0.00 | 0.00 | 75 | 1012.1 |
| 20260505094530 | 13 | 357 | 1.6 | 8.0 | 0.00 | 0.00 | 0.00 | 75 | 1012.0 |
| 20260505091530 | 13 | 64 | 0.0 | 3.2 | 0.00 | 0.00 | 0.00 | 73 | 1011.9 |
| 20260505090031 | 14 | 356 | 3.2 | 8.0 | 0.00 | 0.00 | 0.00 | 71 | 1011.8 |
| 20260505084645 | 14 | 337 | 4.8 | 6.4 | 0.00 | 0.00 | 0.00 | 71 | 1011.8 |
| 20260505080107 | 14 | 320 | 4.8 | 11.3 | 0.00 | 0.00 | 0.00 | 70 | 1011.8 |
| 20260505074530 | 14 | 336 | 0.0 | 8.0 | 0.00 | 0.00 | 0.00 | 69 | 1011.8 |
| 20260505071531 | 14 | 128 | 0.0 | 4.8 | 0.00 | 0.00 | 0.00 | 66 | 1011.5 |
| 20260505064528 | 15 | 157 | 1.6 | 9.7 | 0.00 | 0.00 | 0.00 | 63 | 1011.4 |
| 20260505063028 | 16 | 300 | 3.2 | 12.9 | 0.00 | 0.00 | 0.00 | 60 | 1011.4 |
| 20260505054530 | 17 | 313 | 6.4 | 16.1 | 0.00 | 0.00 | 0.00 | 56 | 1011.2 |
| 20260505051534 | 18 | 308 | 6.4 | 16.1 | 0.00 | 0.00 | 0.00 | 52 | 1010.9 |
| 20260505041530 | 20 | 304 | 9.7 | 25.7 | 0.00 | 0.00 | 0.00 | 46 | 1010.4 |
| 20260505040044 | 20 | 309 | 12.9 | 25.7 | 0.00 | 0.00 | 0.00 | 46 | 1010.1 |
| 20260505033145 | 20 | 311 | 11.3 | 22.5 | 0.00 | 0.00 | 0.00 | 45 | 1009.8 |
| 20260505030033 | 21 | 305 | 12.9 | 22.5 | 0.00 | 0.00 | 0.00 | 43 | 1009.3 |
| 20260505024606 | 22 | 306 | 14.5 | 25.7 | 0.00 | 0.00 | 0.00 | 42 | 1009.2 |
| 20260505023030 | 22 | 303 | 19.3 | 33.8 | 0.00 | 0.00 | 0.00 | 40 | 1009.0 |
| 20260505014532 | 24 | 304 | 20.9 | 37.0 | 0.00 | 0.00 | 0.00 | 36 | 1008.9 |
| 20260505013031 | 25 | 298 | 19.3 | 35.4 | 0.00 | 0.00 | 0.00 | 35 | 1008.9 |
| 20260505004540 | -17 | 0 | 0.0 | 0.0 | 0.00 | 0.00 | 0.00 | 100 | |
| 20260505001528 | 26 | 351 | 17.7 | 32.2 | 0.00 | 0.00 | 0.00 | 38 | 1009.1 |
| 20260505000106 | 26 | 347 | 19.3 | 29.0 | 0.00 | 0.00 | 0.00 | 37 | 1009.1 |
| 20260504234531 | 27 | 342 | 16.1 | 27.4 | 0.00 | 0.00 | 0.00 | 37 | 1009.1 |
| 20260504233032 | 27 | 351 | 16.1 | 24.1 | 0.00 | 0.00 | 0.00 | 36 | 1009.2 |
| 20260504231607 | 27 | 355 | 16.1 | 25.7 | 0.00 | 0.00 | 0.00 | 35 | 1009.4 |
| 20260504230030 | 27 | 353 | 16.1 | 24.1 | 0.00 | 0.00 | 0.00 | 34 | 1009.5 |